www.pogodaiklimat.ru
Время
(UTC), дата
09 9.12
12 9.12
15 9.12
18 9.12
21 9.12
00 10.12
03 10.12
06 10.12
09 10.12
12 10.12
15 10.12
18 10.12
21 10.12
00 11.12
03 11.12
06 11.12
09 11.12
12 11.12
15 11.12
18 11.12
21 11.12
00 12.12
03 12.12
06 12.12
09 12.12
12 12.12
15 12.12
18 12.12
21 12.12
00 13.12
03 13.12
06 13.12
09 13.12
12 13.12
15 13.12
18 13.12
21 13.12
00 14.12
03 14.12
06 14.12
09 14.12
12 14.12
15 14.12
18 14.12
21 14.12
00 15.12
03 15.12
06 15.12
09 15.12
12 15.12
15 15.12
18 15.12
21 15.12
00 16.12
03 16.12
06 16.12
Ветер
(напр.,м/с)
Видим. Явления Облачность Т
(С)
Тd
(С)
f
(%)
Тe
(С)
Тes
(С)
Комфортность P
(гПа)
Po
(гПа)
Тmin
(С)
Tmax
(С)
R
(мм)
R24
(мм)
S
(см)
ЮВ 3 10 км слаб. ливневой снег 10/10 210 м
[Cb cap]
+0.5 +0.5 100 -4 -4 978.2 976.8
Ю 4 20 км слаб. ливневой дождь 10/10 300 м
[Cb cap]
+2.1 +1.2 94 -3 -3 978.2 976.8
Ю 4 50 км в посл. час ливневой дождь 10/10 500 м
[Cb cap]
+2.9 +2.0 94 -2 -2 977.7 976.2 +2.9 3
ЮЗ 8-13
{16}
4000 м ливневой дождь со снегом 10/10 180 м
[Cb cap]
+1.4 +0.5 94 -6 -6 978.2 976.8
ЮЗ 6-10
{13}
50 км {ливн. осадки} 10/5 300 м
[Sc Ac und]
+1.6 -0.3 87 -5 -5 980.8 979.3
ЮЗ 5
{14}
50 км {ливн. осадки} 10/10 630 м
[Cb cap]
+1.2 -2.2 78 -4 -4 985.1 983.7
З 7-12
{14}
50 км {ливн. осадки} 10/10 600 м
[Sc]
-0.4 -2.5 86 -8 -8 989.3 987.8 -0.4 2 16
З 7-12
{14}
50 км {ливн. осадки, снег} 10/10 540 м
[Sc]
-1.5 -4.2 82 -9 -9 993.9 992.4 -1.5
З 4
{12}
50 км 10/10 570 м
[Sc]
-1.8 -4.2 84 -8 -8 997.3 995.8
З 3 50 км {снег} 10/8 600 м
[Sc Ac und]
-2.8 -5.6 81 -8 -8 999.0 997.5
З 5 10 км снежные зёрна {метель} 10/10 210 м
[St]
-3.5 -4.6 92 -10 -10 1000.8 999.3 -0.5 0.4
З 6-11
{12}
50 км позёмок {ливн. осадки, снег} 10/10 570 м
[Cb cap]
-2.3 -4.6 84 -9 -9 1002.6 1001.1
З 7-12
{13}
50 км позёмок 9/9 600 м
[Sc]
-4.4 -6.5 85 -13 -13 1005.8 1004.3
З 7-14
{14}
50 км позёмок 10/10 300 м
[St]
-5.7 -7.7 86 -14 -14 1008.3 1006.7
З 8-13
{14}
50 км позёмок 9/4 600 м
[Sc Ac trans]
-4.8 -7.2 83 -14 -14 1011.3 1009.8 -5.7 0.4 15
З 6-11
{14}
50 км {метель} 1/1 600 м
[Sc]
-5.7 -8.6 80 -14 -14 1013.9 1012.4
З 2
{11}
50 км 3/1 300 м
[Sc Ac trans Ci fib]
-7.9 -11.0 78 -12 -12 1016.3 1014.7
ЮВ 1 50 км 9/0
[Ac trans Ci fib]
-9.1 -11.8 81 -11 -11 1017.4 1015.8
ЮВ 2 50 км 10/0
[Ac lent]
-7.7 -10.6 80 -12 -12 1016.6 1015.1 -4.2
ЮВ 2 50 км 10/4 600 м
[Sc Ac lent]
-6.6 -9.1 82 -11 -11 1014.9 1013.4
Ю 5-10
{10}
50 км 10/10 270 м
[St]
-2.8 -7.3 71 -9 -9 1012.9 1011.3
Ю 4
{10}
50 км {снег, метель} 10/10 720 м
[St]
-1.7 -5.2 77 -7 -7 1010.7 1009.2
ЮЗ 4 50 км 10/10 720 м
[Sc]
-1.3 -3.8 83 -7 -7 1010.8 1009.3 -7.9 0.0 14
ЮЗ 4
{11}
50 км 10/10 870 м
[Sc]
-0.9 -3.5 83 -7 -7 1011.2 1009.6
Ю 4 50 км {ливн. осадки} 10/10 630 м
[Cb cap]
-0.6 -3.6 80 -6 -6 1011.3 1009.8
Ю 2 10 км слаб. снег 10/6 330 м
[Frnb As op]
-1.4 -1.9 96 -5 -5 1010.8 1009.2
Ю 3 50 км {снег} 10/10 500 м
[Sc]
-1.0 -3.6 82 -6 -6 1010.5 1009.0 -0.6 0.8
Ю 4 50 км {снег} 10/10 600 м
[Sc]
-1.4 -4.6 79 -7 -7 1010.2 1008.7
ЮЗ 5 50 км 8/0
[Ac lent]
-1.8 -5.6 75 -8 -8 1010.1 1008.6
Ю 3
{10}
50 км 10/10 570 м
[Sc]
-1.5 -4.3 81 -6 -6 1009.5 1008.0
Ю 3 50 км 10/8 300 м
[Frnb As trans Ci fib]
-1.6 -1.9 98 -7 -7 1008.4 1006.9
Ю 3 10 км слаб. ливневой снег 10/10 300 м
[Cb cap]
-1.8 -2.4 96 -7 -7 1007.3 1005.8 -2.1
Ю 3 50 км {ливн. осадки} 9/3 600 м
[Sc Ac lent]
-0.4 -1.6 92 -5 -5 1008.0 1006.5
Ю 2 50 км {ливн. осадки} 8/3 600 м
[Sc Ac lent Cs]
-1.6 -2.9 91 -6 -6 1008.8 1007.3
Ю 3 10 км снежные зёрна 10/10 240 м
[St]
-0.9 -1.7 94 -6 -6 1009.5 1007.9 +0.1 2
Ю 4 50 км {ливн. осадки, снег} 10/10 240 м
[St]
+0.9 +0.2 95 -5 -5 1009.5 1008.0
Ю 3 50 км 10/10 450 м
[St]
+1.1 +0.4 95 -4 -4 1010.0 1008.5
ЮВ 1 50 км 10/10 300 м
[St]
+1.2 +0.5 95 -1 -1 1010.7 1009.2
ЮВ 1 50 км 10/10 270 м
[St]
+1.1 +0.3 94 -1 -1 1011.1 1009.6 -0.9 0.2 18
ЮВ 2 50 км 10/10 300 м
[St]
+0.6 -0.1 95 -3 -3 1011.6 1010.1
ЮВ 2 50 км 10/10 870 м
[Sc]
+0.9 -0.2 92 -3 -3 1012.5 1010.9
ЮВ 2 50 км 10/10 960 м
[Sc]
+0.4 -0.9 91 -3 -3 1012.8 1011.3
ЮВ 2 50 км 10/10 700 м
[Sc]
0.0 -1.5 90 -4 -4 1012.6 1011.1 +1.2
ЮВ 2 50 км 10/10 630 м
[Frnb]
-0.4 -2.0 89 -4 -4 1012.4 1010.9
ЮВ 3 50 км 10/10 420 м
[St]
-0.4 -2.0 89 -5 -5 1012.3 1010.8
ЮВ 2 50 км 10/10 450 м
[St]
-0.4 -2.1 88 -4 -4 1012.1 1010.6
ЮВ 2 50 км в посл. час зёрна 10/10 330 м
[St]
-1.2 -2.9 88 -5 -5 1011.6 1010.1 -1.2 0.0 18
ЮВ 2 50 км {снег} 10/10 420 м
[St]
-1.4 -3.0 89 -5 -5 1010.9 1009.4 -1.4
ЮВ 3 50 км 10/8 600 м
[Sc Ac und]
-1.1 -2.1 93 -6 -6 1010.1 1008.6
ЮВ 2 50 км 10/10 600 м
[St]
-0.9 -2.0 92 -5 -5 1009.1 1007.6
ЮВ 2 50 км {снег} 10/10 570 м
[St]
-0.3 -1.6 91 -4 -4 1008.3 1006.8 -0.3 0.0
ЮВ 3 50 км {снег} 10/10 300 м
[St]
-0.6 -2.8 85 -5 -5 1007.5 1006.0
ЮВ 2 50 км 10/10 300 м
[St]
-0.7 -2.3 89 -5 -5 1006.6 1005.1
ЮВ 2 50 км 10/10 240 м
[St]
-0.3 -1.3 93 -4 -4 1005.3 1003.8
ЮВ 3
{10}
50 км 10/10 210 м
[St]
-0.2 -1.5 91 -5 -5 1003.1 1001.6 -0.7 0.0 17
ЮВ 4
{10}
50 км 10/10 270 м
[St]
-0.3 -1.4 92 -6 -6 1001.6 1000.1
Местоположение метеостанции Онега (Архангельская область, Россия): широта 63.90 долгота 38.12 высота над уровнем моря 13 м.
В архиве по умолчанию представлена погода в Онеге за последнюю неделю. Архивные данные за месяц целиком и за предыдущие месяцы, начиная с января 2011 года, Вы можете получить, выбрав интересующий диапазон дат из раскрывающегося списка и нажав кнопку "Найти!".
*Определитесь, кто Вы:
Внимание! Время в таблицах - всемирное. Для получения местного времени необходимо прибавить поправку, которая равна 3 ч.
Смотрите также архив погоды в соседних городах и на ближайших метеорологических станциях:
Партнеры нашего сайта:      
Пояснения к столбцам:
  • Ветер - указаны скорость ветра в м/с - средняя за 10 мин, порывы в срок и между сроками (в фигурных скобках) и направление, откуда дует ветер: С - северный,
  • СВ - северо-восточный, В - восточный, ЮВ - юго-восточный, Ю - южный, ЮЗ - юго-западный, З - западный, СЗ - северо-западный.
  • Видимость - горизонтальная дальность видимости в метрах или километрах. При видимости от 1 до 10 км при отсутствии осадков обычно наблюдается дымка, при ухудшении видимости до 1 км и менее - туман. В сухую погоду видимость может ухудшаться дымом, пылью или мглою.
  • Явления - указаны атмосферные явления, наблюдавшиеся в срок или в последний час перед сроком; фигурными скобками обозначены явления, наблюдавшиеся между сроками (за 1-3 часа до срока); квадратными скобками обозначены град или гололедные отложения с указанием их диаметра в мм.
  • Облачность - указаны через наклонную черту общая и нижняя облачность в баллах и высота нижней границы облаков в метрах; квадратными скобками обозначены формы облаков: Ci - перистые, Cs - перисто-слоистые, Cc - перисто-кучевые, Ac - высококучевые, As - высокослоистые, Sc - слоисто-кучевые, Ns - слоисто-дождевые, Cu - кучевые, Cb - кучево-дождевые. Подробнее классификацию облаков см. в Атласе облаков (PDF).
  • T - Температура воздуха - температура, измеренная на высоте 2 м над землей.
  • Td - Температура точки росы - температура, при понижении до которой содержащийся в воздухе водяной пар достигнет насыщения.
  • f - Относительная влажность воздуха - влажноcть воздуха, измеренная на высоте 2 м над землей.
  • Te - Эффективная температура - температура, которую ощущает одетый по сезону человек в тени. Характеристика душности погоды. При расчете учитывается влияние влажности воздуха и скорости ветра на теплоощущения человека.
  • Tes - Эффективная температура на солнце - температура, которую ощущает человек, с поправкой на солнечный нагрев. Характеристика знойности погоды. Зависит от высоты солнца над горизонтом, облачности и скорости ветра. Ночью, в пасмурную погоду, а также при ветре 12 м/с и более поправка равна нулю.
  • P - Атмосферное давление - приведенное к уровню моря атмосферное давление.
  • Po - Атмосферное давление - измеренное на уровне метеостанции атмосферное давление.
  • Tmin - Минимальная температура - минимум температуры воздуха на высоте 2 м над землей.
  • Tmax - Максимальная температура - максимум температуры воздуха на высоте 2 м над землей.
  • R - Количество осадков - Количество выпавших осадков за период времени, мм. При наведении курсора мыши на число - период времени, за который выпало указанное количество осадков.
  • R24 - Количество осадков - Количество выпавших осадков за 24 часа, мм.
  • S - Снежный покров - Высота снежного покрова, см. При наведении курсора мыши на число - состояние снежного покрова и степень покрытия местности в баллах.